sat.trackr.live / text

‹ back to catalog

STARLINK-36585

NORAD 67540 · 2026-014J

PAYLOAD ACTIVE UNKNOWN

§ Identity

Operator
Country
US
Launch date
2026-01-22
Launch site
AFWTR
Launch vehicle
Mass (kg)
RCS (m²)

Purposes: comms

External: N2YO · Heavens-Above · Gunter

§ Orbital elements

Epoch: 2026-05-25T03:50:44.696256Z

Period
93.91 min
Inclination
97.2863°
Eccentricity
0.0001799
Mean motion
15.33453458 rev/d
Perigee alt
464.3 km
Apogee alt
466.7 km
Semi-major
6,843.7 km
B*
6.6332e-4
RAAN
32.2185°
Arg perigee
88.3264°
Mean anomaly
271.8185°
Rev number
2,050

§ Raw data

STARLINK-365851 67540U 26014J   26145.16023954  .00021406  00000+0  66332-3 0  99982 67540  97.2863  32.2185 0001799  88.3264 271.8185 15.33453458 20507

JSON: /api/v1/satellites/67540 · /tle

For live sub-satellite position, see the globe view (requires WebGL).

§ Visibility from observer

Set your observer location to see the next 7 days of passes ≥ 10°. The values pass through the URL so the page stays shareable.

No JS? Fill the form by hand. The geolocation button needs JavaScript.